sat.trackr.live / text

‹ back to catalog

STARLINK-31988

NORAD 60601 · 2024-150U

PAYLOAD ACTIVE UNKNOWN

§ Identity

Operator
Country
US
Launch date
2024-08-20
Launch site
AFETR
Launch vehicle
Mass (kg)
RCS (m²)

Purposes: comms

External: N2YO · Heavens-Above · Gunter

§ Orbital elements

Epoch: 2026-05-25T04:37:30.387648Z

Period
93.85 min
Inclination
53.1623°
Eccentricity
0.0001414
Mean motion
15.34390519 rev/d
Perigee alt
461.8 km
Apogee alt
463.7 km
Semi-major
6,840.9 km
B*
3.3083e-5
RAAN
311.0157°
Arg perigee
93.8514°
Mean anomaly
266.2651°
Rev number
9,968

§ Raw data

STARLINK-319881 60601U 24150U   26145.19271282  .00000741  00000+0  33083-4 0  99972 60601  53.1623 311.0157 0001414  93.8514 266.2651 15.34390519 99683

JSON: /api/v1/satellites/60601 · /tle

For live sub-satellite position, see the globe view (requires WebGL).

§ Visibility from observer

Set your observer location to see the next 7 days of passes ≥ 10°. The values pass through the URL so the page stays shareable.

No JS? Fill the form by hand. The geolocation button needs JavaScript.